SVA209 LGAV-EGLL

Flight info

Callsign SVA209
Flight time N/A
Altitude 36000
Route KOR1M KOR UL53 IPTES DCT DIMIS DCT PETAK DCT GLOMY DCT NEMEK DCT ADOMO DCT GIMIX DCT TATZI DCT BABEG DCT LIRSU DCT ARCKY DCT BUB L608 LOGAN LOGAN2H
Aircraft A320/M-SDE3FGHIRWY/LB1

Departure

Time N/A
Airport Athens Eleftherios Venizelos International Airport (LGAV)

Arrival

Time 2026-05-05 05:23
Airport London Heathrow Airport (EGLL)
Time Latitude Longitude Altitude Speed Heading
2026-05-05 04:40 50.78815 4.84758 37960 ft 449 kts 297°
2026-05-05 04:40 50.81984 4.76227 37959 ft 448 kts 297°
2026-05-05 04:41 50.85135 4.67708 37967 ft 448 kts 297°
2026-05-05 04:41 50.88250 4.59244 37947 ft 448 kts 297°
2026-05-05 04:42 50.91410 4.50652 37939 ft 449 kts 297°
2026-05-05 04:42 50.94650 4.42186 37939 ft 449 kts 298°
2026-05-05 04:43 50.97927 4.33750 37939 ft 449 kts 298°
2026-05-05 04:43 51.01185 4.25280 37943 ft 449 kts 298°
2026-05-05 04:44 51.04418 4.16793 37959 ft 449 kts 298°
2026-05-05 04:44 51.07641 4.08286 37962 ft 449 kts 298°
2026-05-05 04:45 51.10858 3.99769 37957 ft 449 kts 297°
2026-05-05 04:45 51.14092 3.91173 37959 ft 449 kts 297°
2026-05-05 04:46 51.17278 3.82691 37961 ft 449 kts 297°
2026-05-05 04:46 51.20506 3.74088 37966 ft 450 kts 297°
2026-05-05 04:47 51.23707 3.65517 37966 ft 450 kts 297°
2026-05-05 04:47 51.26908 3.56922 37971 ft 450 kts 297°
2026-05-05 04:48 51.30095 3.48321 37984 ft 450 kts 297°
2026-05-05 04:48 51.33192 3.39921 37979 ft 450 kts 297°
2026-05-05 04:49 51.35900 3.30985 37984 ft 446 kts 288°
2026-05-05 04:49 51.38098 3.21708 37981 ft 446 kts 288°
2026-05-05 04:50 51.40282 3.12406 37980 ft 446 kts 288°
2026-05-05 04:50 51.42458 3.03154 37998 ft 447 kts 288°
2026-05-05 04:51 51.44663 2.93783 37992 ft 447 kts 288°
2026-05-05 04:51 51.46848 2.84456 37946 ft 446 kts 288°
2026-05-05 04:51 51.47912 2.79888 37660 ft 438 kts 288°
2026-05-05 04:52 51.48966 2.75353 37380 ft 431 kts 287°
2026-05-05 04:52 51.50004 2.70865 37119 ft 428 kts 287°
2026-05-05 04:52 51.51048 2.66338 36852 ft 426 kts 287°
2026-05-05 04:52 51.52076 2.61877 36597 ft 425 kts 287°
2026-05-05 04:53 51.53085 2.57484 36336 ft 425 kts 287°
2026-05-05 04:53 51.54120 2.52976 36086 ft 424 kts 287°
2026-05-05 04:53 51.55130 2.48591 35833 ft 424 kts 288°
2026-05-05 04:53 51.56163 2.44095 35576 ft 423 kts 288°
2026-05-05 04:54 51.57176 2.39667 35336 ft 422 kts 288°
2026-05-05 04:54 51.58187 2.35236 35086 ft 422 kts 288°
2026-05-05 04:54 51.59194 2.30801 34848 ft 422 kts 288°
2026-05-05 04:54 51.60198 2.26376 34457 ft 419 kts 288°
2026-05-05 04:55 51.61161 2.22128 33916 ft 417 kts 288°
2026-05-05 04:55 51.62136 2.17821 33316 ft 413 kts 287°
2026-05-05 04:55 51.63094 2.13578 32778 ft 409 kts 287°
2026-05-05 04:55 51.64069 2.09255 32201 ft 406 kts 287°
2026-05-05 04:56 51.65024 2.05005 31635 ft 403 kts 286°
2026-05-05 04:56 51.65977 2.00774 31056 ft 400 kts 286°
2026-05-05 04:56 51.66922 1.96576 30464 ft 398 kts 285°
2026-05-05 04:56 51.67860 1.92391 29849 ft 396 kts 285°
2026-05-05 04:57 51.68790 1.88205 29215 ft 398 kts 285°
2026-05-05 04:57 51.69725 1.83978 28580 ft 402 kts 285°
2026-05-05 04:57 51.70664 1.79726 27913 ft 405 kts 285°
2026-05-05 04:57 51.71610 1.75430 27254 ft 408 kts 286°
2026-05-05 04:58 51.72563 1.71103 26573 ft 411 kts 286°
2026-05-05 04:58 51.73506 1.66741 25860 ft 410 kts 284°
2026-05-05 04:58 51.74150 1.62283 25249 ft 410 kts 276°
2026-05-05 04:58 51.74391 1.57612 24954 ft 424 kts 268°
2026-05-05 04:59 51.74262 1.52865 23832 ft 422 kts 263°
2026-05-05 04:59 51.73972 1.48085 22716 ft 429 kts 262°
2026-05-05 04:59 51.73656 1.43352 22401 ft 421 kts 262°
2026-05-05 04:59 51.73334 1.38670 21931 ft 419 kts 262°
2026-05-05 05:00 51.73017 1.34017 21301 ft 415 kts 262°
2026-05-05 05:00 51.72707 1.29407 20686 ft 412 kts 262°
2026-05-05 05:00 51.72402 1.24831 20070 ft 409 kts 262°
2026-05-05 05:00 51.72101 1.20295 19458 ft 406 kts 263°
2026-05-05 05:01 51.71799 1.15779 18852 ft 403 kts 263°
2026-05-05 05:01 51.71496 1.11293 18239 ft 401 kts 262°
2026-05-05 05:01 51.71196 1.06839 17592 ft 399 kts 263°
2026-05-05 05:01 51.70894 1.02416 17001 ft 395 kts 263°
2026-05-05 05:02 51.70592 0.98026 16409 ft 392 kts 263°
2026-05-05 05:02 51.70290 0.93673 15792 ft 389 kts 263°
2026-05-05 05:02 51.69987 0.89292 14802 ft 396 kts 263°
2026-05-05 05:02 51.69680 0.84853 13967 ft 399 kts 263°
2026-05-05 05:03 51.69381 0.80520 13728 ft 375 kts 263°
2026-05-05 05:03 51.69099 0.76485 13247 ft 353 kts 263°
2026-05-05 05:03 51.68823 0.72605 12939 ft 337 kts 263°
2026-05-05 05:03 51.68557 0.68893 12583 ft 331 kts 263°
2026-05-05 05:04 51.68295 0.65222 12122 ft 329 kts 264°
2026-05-05 05:04 51.68033 0.61571 11650 ft 327 kts 263°
2026-05-05 05:04 51.67771 0.57945 11183 ft 325 kts 263°
2026-05-05 05:04 51.67512 0.54367 10918 ft 313 kts 264°
2026-05-05 05:05 51.67267 0.51017 10666 ft 293 kts 264°
2026-05-05 05:05 51.67027 0.47771 10361 ft 289 kts 264°
2026-05-05 05:05 51.66795 0.44585 10116 ft 285 kts 264°
2026-05-05 05:05 51.66563 0.41396 9735 ft 285 kts 264°
2026-05-05 05:06 51.66329 0.38207 9277 ft 285 kts 264°
2026-05-05 05:06 51.66096 0.35043 8833 ft 285 kts 264°
2026-05-05 05:06 51.65860 0.31878 8387 ft 284 kts 264°
2026-05-05 05:06 51.65626 0.28754 8052 ft 280 kts 264°
2026-05-05 05:07 51.65391 0.25633 7632 ft 279 kts 264°
2026-05-05 05:07 51.65158 0.22540 7286 ft 276 kts 264°
2026-05-05 05:07 51.64929 0.19500 7177 ft 274 kts 264°
2026-05-05 05:07 51.64775 0.17454 7090 ft 270 kts 264°
2026-05-05 05:08 51.64558 0.14563 6991 ft 248 kts 265°
2026-05-05 05:08 51.64387 0.11811 7001 ft 242 kts 266°
2026-05-05 05:08 51.64241 0.09125 7002 ft 241 kts 266°
2026-05-05 05:08 51.64102 0.06445 7002 ft 241 kts 266°
2026-05-05 05:09 51.63960 0.03765 7006 ft 241 kts 266°
2026-05-05 05:09 51.63816 0.01078 7004 ft 241 kts 266°
2026-05-05 05:09 51.63669 -0.01608 6964 ft 241 kts 266°
2026-05-05 05:09 51.63522 -0.04275 6840 ft 238 kts 266°
2026-05-05 05:10 51.63372 -0.06964 6713 ft 237 kts 266°
2026-05-05 05:10 51.63221 -0.09646 6590 ft 237 kts 266°
2026-05-05 05:10 51.63074 -0.12243 6469 ft 236 kts 266°
2026-05-05 05:10 51.62924 -0.14872 6345 ft 236 kts 266°
2026-05-05 05:11 51.62775 -0.17493 6215 ft 235 kts 266°
2026-05-05 05:11 51.62625 -0.20114 6094 ft 235 kts 266°
2026-05-05 05:11 51.62472 -0.22776 5999 ft 235 kts 266°
2026-05-05 05:11 51.62321 -0.25403 6006 ft 235 kts 266°
2026-05-05 05:12 51.62169 -0.28011 6010 ft 236 kts 266°
2026-05-05 05:12 51.62015 -0.30648 6009 ft 235 kts 266°
2026-05-05 05:12 51.61863 -0.33260 6009 ft 235 kts 266°
2026-05-05 05:12 51.61709 -0.35871 6008 ft 235 kts 266°
2026-05-05 05:13 51.61553 -0.38494 6007 ft 235 kts 266°
2026-05-05 05:13 51.61396 -0.41111 6008 ft 235 kts 266°
2026-05-05 05:13 51.61239 -0.43731 6010 ft 235 kts 266°
2026-05-05 05:13 51.61082 -0.46347 6007 ft 235 kts 266°
2026-05-05 05:14 51.60927 -0.48969 6010 ft 235 kts 266°
2026-05-05 05:14 51.60768 -0.51628 6009 ft 236 kts 266°
2026-05-05 05:14 51.60609 -0.54251 6009 ft 236 kts 266°
2026-05-05 05:14 51.60449 -0.56875 6009 ft 236 kts 266°
2026-05-05 05:15 51.60291 -0.59498 6007 ft 236 kts 266°
2026-05-05 05:15 51.60132 -0.62122 6009 ft 236 kts 266°
2026-05-05 05:15 51.59972 -0.64724 6005 ft 228 kts 266°
2026-05-05 05:15 51.59818 -0.67189 6007 ft 217 kts 266°
2026-05-05 05:16 51.59670 -0.69598 6010 ft 216 kts 266°
2026-05-05 05:16 51.59526 -0.71937 6005 ft 204 kts 266°
2026-05-05 05:16 51.59390 -0.74155 6006 ft 197 kts 266°
2026-05-05 05:16 51.59194 -0.76330 5990 ft 196 kts 254°
2026-05-05 05:17 51.58504 -0.78208 5750 ft 199 kts 226°
2026-05-05 05:17 51.57331 -0.79391 5445 ft 202 kts 198°
2026-05-05 05:17 51.55931 -0.79612 5135 ft 204 kts 178°
2026-05-05 05:17 51.54517 -0.79514 4745 ft 206 kts 178°
2026-05-05 05:18 51.53076 -0.79432 4383 ft 206 kts 178°
2026-05-05 05:18 51.51645 -0.79353 4027 ft 205 kts 178°
2026-05-05 05:18 51.50216 -0.79278 3674 ft 205 kts 178°
2026-05-05 05:18 51.48793 -0.79204 3342 ft 205 kts 177°
2026-05-05 05:19 51.47391 -0.78925 3027 ft 201 kts 150°
2026-05-05 05:19 51.46471 -0.77426 3007 ft 189 kts 106°
2026-05-05 05:19 51.46331 -0.75390 3013 ft 185 kts 84°
2026-05-05 05:19 51.46351 -0.73320 3009 ft 186 kts 85°
2026-05-05 05:20 51.46364 -0.71246 2904 ft 186 kts 85°
2026-05-05 05:20 51.46377 -0.69174 2694 ft 186 kts 85°
2026-05-05 05:20 51.46387 -0.67137 2471 ft 178 kts 85°
2026-05-05 05:20 51.46396 -0.65195 2212 ft 165 kts 84°
2026-05-05 05:21 51.46406 -0.63412 1990 ft 155 kts 85°
2026-05-05 05:21 51.46414 -0.61740 1805 ft 145 kts 85°
2026-05-05 05:21 51.46422 -0.60176 1605 ft 134 kts 84°
2026-05-05 05:21 51.46430 -0.58694 1412 ft 132 kts 85°
2026-05-05 05:22 51.46438 -0.57196 1228 ft 131 kts 85°
2026-05-05 05:22 51.46445 -0.55716 1049 ft 132 kts 86°
2026-05-05 05:22 51.46452 -0.54275 864 ft 132 kts 86°
2026-05-05 05:22 51.46459 -0.52726 676 ft 132 kts 86°
2026-05-05 05:23 51.46471 -0.51239 503 ft 133 kts 88°
2026-05-05 05:23 51.46473 -0.49763 319 ft 131 kts 87°
2026-05-05 05:23 51.46488 -0.48266 145 ft 130 kts 84°
2026-05-05 05:23 51.46478 -0.47867 87 ft 0 kts 99°